ONEWEB-0696, 56723

Orbit data source: Space-Track

ONEWEB-0696, 56723 is a payload satellite owned by One Web (NAA) (UK) in LEO that was launched on Sat, 20 May 2023 UTC via an FALCON 9 launch vehicle from the Air Force Western Test Range (AFWTR). Payloads include a variety of satellites, spacecraft, and rockets equipped with specific instruments for various scientific and technological missions. These include communications satellites like Starlink; space stations such as the ISS; scientific satellites like the Hubble; Earth observation satellites from companies like Planet Labs, Umbra, and HawkEye 360; GPS; miniature CubeSats for education and research; and military/defense satellites.

Loading next visibility...
ONEWEB-0696 details
Identifier
56723, 2023-068P
Orbit
LEO
Last TLE update16 hours ago
Origin
Flag of UKOne Web (NAA) (UK)
ManufacturerOne Web
MissionOperational Commercial Communications
Bus & MotorARROW, Unknown motor
Mass148 kg wet, ~140 kg dry
Launch date (UTC)
2023-05-20 (2 years ago)
Launch vehicle
FALCON 9
Launch site
Air Force Western Test Range (AFWTR)
Object type
Payload
Rocket body
Debris
Shape & HBRTrap Box + 2 Pan, 5 m
Radar Cross Section2.032 m², Large (>1 m²)

Expand to show TLE details & history

TLE from 16 hours ago
0 ONEWEB-0696
1 56723U 23068P   25014.99408601 -.00000093  00000-0 -28012-3 0  9991
2 56723  87.9078   2.4053 0001545  94.0363 266.0944 13.15547144 81935
Epoch: 2025-01-14T23:51Z
Definitive object data (Epoch: 2025-01-14T23:51:29.031Z)
Latitude-0°
Longitude-110.15846°
Altitude1,204.751 km
Speed7.252 km/s
True Right ascension00h 09m 37s
True Declination0° 00' 00"
Sunlit
Object was in daylight at TLE epoch
Visualization TLE readout
Latitude-63.18271°
Longitude73.83382°
Altitude1,227.068 km
Speed7.24 km/s
Apparent Right ascension07h 15m 31s
Apparent Declination-68° 18' 20"
Sunlit
Object is in daylight
Visualization observer readout
Local Sidereal Time16:22:28
Azimuth205.137° SW
Elevation-53.386°
Doppler factor1
Orbital elements
Apogee altitude1,200.059 km
Perigee altitude1,197.717 km
Semi-major axis7,577.025 km
Eccentricity0.0001545
Inclination87.9078°
RAAN2.4053°
Arg. of periapsis94.0363°
True anomaly266.07674°
Mean anomaly266.0944°
Eccentric anomaly266.08557°
Mean motion3.29075 °/min
BSTAR-0.00028012
Orbital period109.4 mins
Loading maneuver chart data...
Loading historical data...
Loading historical data...
Loading historical data...
Loading historical data...
Loading historical data...
Loading historical data...
Loading historical data...

ONEWEB-0696 Visibility forecast

Observer location: undefined°, undefined

Span
Click to sort rows by Start time (UTC) header in descending order
Start Az.
Max El. time (UTC)
Max El. Az.
Max El.
End time (UTC)
End Az.
8 mins2025-01-15 21:54:34.364Z111.109° ESE2025-01-15 21:58:34.364Z74.932° E18.209°2025-01-15 22:02:34.364Z37.961° NE
13 mins2025-01-15 23:41:34.364Z188.365° SSW2025-01-15 23:47:34.364Z283.43° WNW43.768°2025-01-15 23:54:34.364Z356.865° N
5 mins2025-01-16 09:22:34.364Z55.122° ENE2025-01-16 09:24:34.364Z72.933° E13.715°2025-01-16 09:27:34.364Z98.45° ESE
12 mins2025-01-16 11:09:34.364Z0.689° NNE2025-01-16 11:14:34.364Z18.964° NNE44.657°2025-01-16 11:21:34.364Z180.002° SSW
5 mins2025-01-16 13:01:34.364Z305.87° NW2025-01-16 13:03:34.364Z287.438° WNW15.041°2025-01-16 13:06:34.364Z261.059° W
|